Weather History for KCWA - February, 2013

Change the Weather History Date:

Friday, February 22, 2013

  Actual Average (KAUW) Record (KAUW)
Temperature  
Mean Temperature 24 °F 21 °F  
Max Temperature 28 °F 30 °F 53 °F (2000)
Min Temperature 21 °F 12 °F -23 °F (1936)
Degree Days  
Heating Degree Days 40 44  
Month to date heating degree days 1030  
Since 1 July heating degree days 5880  
Cooling Degree Days 0 0  
Month to date cooling degree days 0  
Year to date cooling degree days 0  
Moisture  
Dew Point 23 °F    
Average Humidity 97    
Maximum Humidity 100    
Minimum Humidity 86    
Precipitation  
Precipitation 0.00 in 0.04 in 1.28 in (1981)
Month to date precipitation 0.68  
Year to date precipitation 1.70  
Snow  
Snow 0.00 in 0.40 in 5.00 in (1945)
Month to date snowfall 7.5  
Since 1 July snowfall 43.2  
Snow Depth -    
Sea Level Pressure  
Sea Level Pressure 29.86 in    
Wind  
Wind Speed 11 mph (ENE)    
Max Wind Speed 21 mph    
Max Gust Speed 23 mph    
Visibility 4 miles    
Events Snow    
T = Trace of Precipitation, MM = Missing Value Source: NWS Daily Summary

Daily Weather History Graph

Daily Weather History Graph

Search for Another Location

Airport or City:

Trip Planner

Search our weather history database for the weather conditions in past years. The results will help you decide how hot, cold, wet, or windy it might be!

Date:

Astronomy

Feb. 22, 2013 Rise Set
Actual Time 6:47 AM CST 5:37 PM CST
Civil Twilight 6:18 AM CST 6:06 PM CST
Nautical Twilight 5:44 AM CST 6:40 PM CST
Astronomical Twilight 5:10 AM CST 7:14 PM CST
Moon 2:43 PM CST (2/22) 4:38 AM CST (2/22)
Length of Visible Light 11h 48m
Length of Day
10h 49m
Waxing Gibbous, 90% of the Moon is Illuminated
Feb 22
Waxing Gibbous
Feb 25
Full
Mar 4
Last Quarter
Mar 11
New
Mar 19
First Quarter

Hourly Weather History & Observations

Time (CST) Temp. Windchill Dew Point Humidity Pressure Visibility Wind Dir Wind Speed Gust Speed Precip Events Conditions
12:15 AM 21.2 °F 9.5 °F 19.4 °F 93% 30.10 in 10.0 mi East 11.5 mph 21.9 mph N/A   Overcast
1:15 AM 21.2 °F 7.8 °F 19.4 °F 93% 30.08 in 10.0 mi East 15.0 mph 21.9 mph N/A   Overcast
1:55 AM 21.2 °F 6.8 °F 19.4 °F 93% 30.05 in 10.0 mi ENE 17.3 mph 23.0 mph N/A   Overcast
2:15 AM 21.2 °F 7.8 °F 19.4 °F 93% 30.04 in 10.0 mi ENE 15.0 mph 23.0 mph N/A   Overcast
2:35 AM 21.2 °F 6.4 °F 19.4 °F 93% 30.02 in 2.0 mi ENE 18.4 mph - N/A Snow Light Snow
2:55 AM 21.2 °F 8.3 °F 19.4 °F 93% 30.01 in 1.2 mi ENE 13.8 mph - N/A Snow Light Snow
3:15 AM 21.2 °F 7.8 °F 21.2 °F 100% 29.99 in 1.2 mi ENE 15.0 mph - N/A Snow Light Snow
3:35 AM 21.2 °F 6.8 °F 21.2 °F 100% 29.97 in 1.8 mi ENE 17.3 mph - N/A Snow Light Snow
4:15 AM 21.2 °F 6.0 °F 21.2 °F 100% 29.92 in 1.0 mi ENE 19.6 mph - N/A Snow Light Snow
4:35 AM 21.2 °F 5.6 °F 21.2 °F 100% 29.90 in 1.2 mi ENE 20.7 mph - N/A Snow Light Snow
5:55 AM 21.2 °F 7.8 °F 19.4 °F 93% 29.89 in 1.5 mi East 15.0 mph 18.4 mph N/A Snow Light Snow
6:50 AM 21.2 °F 10.9 °F 19.4 °F 93% 29.89 in 1.0 mi East 9.2 mph - N/A Snow Light Snow
7:30 AM 21.2 °F 10.1 °F 19.4 °F 93% 29.89 in 4.0 mi East 10.4 mph - N/A Snow Light Snow
7:55 AM 21.2 °F 8.9 °F 19.4 °F 93% 29.88 in 10.0 mi ENE 12.7 mph - N/A   Overcast
8:55 AM 23.0 °F 11.7 °F 21.2 °F 93% - 3.0 mi East 11.5 mph - N/A Snow Light Snow
9:52 AM 24.8 °F 14.0 °F 23.0 °F 93% 29.85 in 3.0 mi East 11.5 mph 16.1 mph N/A Snow Light Snow
10:52 AM 24.8 °F 15.3 °F 23.0 °F 93% 29.85 in 3.0 mi East 9.2 mph - N/A Snow Light Snow
11:45 AM 26.6 °F 17.5 °F 24.8 °F 93% 29.83 in 1.5 mi ENE 9.2 mph - N/A Snow Light Snow
12:45 PM 26.6 °F 19.1 °F 24.8 °F 93% 29.80 in 1.5 mi ENE 6.9 mph - N/A Snow Light Snow
1:45 PM 28.4 °F 20.4 °F 26.6 °F 93% 29.78 in 3.0 mi ENE 8.1 mph - N/A Snow Light Snow
2:45 PM 28.4 °F 20.4 °F 24.8 °F 86% 29.77 in 1.5 mi East 8.1 mph - N/A Snow Light Snow
3:45 PM 26.6 °F 22.6 °F 26.6 °F 100% 29.78 in 1.0 mi ENE 3.5 mph - N/A Snow Light Snow
4:45 PM 26.6 °F - 26.6 °F 100% 29.78 in 1.5 mi Calm Calm - N/A Snow Light Snow
5:50 PM 26.6 °F 21.2 °F 26.6 °F 100% 29.78 in 1.0 mi East 4.6 mph - N/A Snow Light Snow
6:45 PM 24.8 °F 20.5 °F 24.8 °F 100% 29.79 in 1.5 mi East 3.5 mph - N/A Snow Light Snow
7:45 PM 24.8 °F - 24.8 °F 100% 29.78 in 2.5 mi Calm Calm - N/A Snow Light Snow
8:45 PM 24.8 °F - 24.8 °F 100% 29.78 in 3.0 mi Calm Calm - N/A Snow Light Snow
9:15 PM 26.6 °F 22.6 °F 26.6 °F 100% 29.78 in 7.0 mi East 3.5 mph - N/A Snow Light Snow
9:35 PM 26.6 °F 22.6 °F 26.6 °F 100% 29.77 in 7.0 mi East 3.5 mph - N/A Snow Light Snow
9:50 PM 24.8 °F - 24.8 °F 100% 29.77 in 5.0 mi Calm Calm - N/A Snow Light Snow
10:15 PM 26.6 °F - 26.6 °F 100% 29.77 in 5.0 mi Calm Calm - N/A Snow Light Snow
10:35 PM 26.6 °F - 26.6 °F 100% 29.77 in 7.0 mi Calm Calm - N/A Snow Light Snow
10:55 PM 26.6 °F - 26.6 °F 100% 29.77 in 7.0 mi Calm Calm - N/A Snow Light Snow
11:15 PM 26.6 °F - 26.6 °F 100% 29.77 in 5.0 mi Calm Calm - N/A Snow Light Snow
11:35 PM 26.6 °F - 26.6 °F 100% 29.77 in 7.0 mi Calm Calm - N/A Snow Light Snow
11:55 PM 26.6 °F - 26.6 °F 100% 29.76 in 5.0 mi Calm Calm - N/A Snow Light Snow